Location: Bailleul
(50.3375°N, 2.8513°E)
Time: 14:01:01
(UTC+00:00)

Cosmos 1300 - Pass Details

Date: 16 June 2021
Orbit: 509 x 513 km, 82.5° (Epoch: 30 July)

Event Time Altitude Azimuth Distance (km) Brightness Sun altitude
Rises 22:02:09 0° 348° (NNW) 2,641 8.0 -12.6°
Reaches altitude 10° 22:04:18 10° 347° (NNW) 1,749 6.8 -12.7°
Maximum altitude 22:08:07 76° 263° (W) 535 2.7 -12.9°
Enters shadow 22:10:39 20° 179° (S) 1,226 4.0 -13.1°
